Location: Rounton
(54.4000°N, 1.3500°W)
Time: 05:08:55
(UTC+00:00)

Vanguard 1 - Pass Details

Date: 03 December 2021
Orbit: 652 x 3830 km, 34.2° (Epoch: 17 January)

Event Time Altitude Azimuth Distance (km) Brightness Sun altitude
Exits shadow 00:43:54 23° 118° (ESE) 5,335 13.6 -56.4°
Drops below altitude 10° 00:49:57 10° 104° (ESE) 5,980 14.0 -56.1°
Sets 00:54:26 0° 96° (E) 6,626 14.4 -55.8°
